User: anonymous   Login
Location: Unspecified
(0.0000°N, 0.0000°E)
Time: 13:00:03
(UTC+00:00)
Language:

USA 229 - Orbit

View from above orbital plane
View from above orbital plane
View from above satellite
View from above satellite

Ground track
Ground track

The orbit data is extracted from the following two-line orbital elements,

1 37386U 11014A   17006.22682046 0.00000000  00000-0  00000-0 0    01
2 37386  63.4360  68.4386 0054000   6.0412 353.9588 13.40723206    07
Epoch (UTC): 06 January 2017 05:26:37
Eccentricity: 0.0054000
inclination: 63.4360°
perigee height: 1066 km
apogee height: 1147 km
right ascension of ascending node: 68.4386°
argument of perigee: 6.0412°
revolutions per day: 13.40723206
mean anomaly at epoch: 353.9588°
orbit number at epoch: 0

The dashed part of the orbit path shows where the satellite is in the earth's shadow,  

DLR